EW4711 Weather Reports


time (UTC)temp
C
wind
direction
speed
KPH
gust
KPH
rain 1hr
cm
rain 24hr
cm
rain mn
cm
humidity
%
barometer
mb
20260507140604 9 226 3.2 4.8 0.00 0.28 0.03 68 1012.0
20260507140104 9 208 1.6 4.8 0.00 0.28 0.03 73 1012.0
20260507135603 9 160 1.6 4.8 0.00 0.30 0.03 73 1012.1
20260507135103 9 151 3.2 9.7 0.00 0.30 0.03 74 1012.2
20260507134603 8 203 1.6 8.0 0.00 0.30 0.03 75 1012.2
20260507134104 8 139 4.8 9.7 0.00 0.30 0.03 73 1012.3
20260507133604 8 131 1.6 4.8 0.00 0.30 0.03 70 1012.3
20260507133104 8 164 3.2 4.8 0.00 0.30 0.03 74 1012.3
20260507132604 8 173 3.2 4.8 0.00 0.30 0.03 74 1012.4
20260507132103 8 149 3.2 8.0 0.00 0.30 0.03 75 1012.3
20260507131103 7 181 1.6 4.8 0.00 0.30 0.03 76 1012.4
20260507130104 7 200 3.2 4.8 0.00 0.30 0.03 81 1012.5
20260507125604 7 176 3.2 4.8 0.00 0.30 0.03 81 1012.5
20260507125103 7 155 3.2 4.8 0.00 0.30 0.03 84 1012.5
20260507124604 6 151 3.2 4.8 0.00 0.30 0.03 89 1012.5
20260507124104 6 158 3.2 4.8 0.00 0.33 0.03 91 1012.5
20260507123603 5 147 1.6 4.8 0.00 0.33 0.03 95 1012.6
20260507123104 4 153 1.6 3.2 0.00 0.33 0.03 97 1012.6
20260507122603 3 182 1.6 3.2 0.00 0.33 0.03 97 1012.6
20260507122104 3 220 1.6 3.2 0.00 0.33 0.03 97 1012.5
20260507121604 3 235 1.6 3.2 0.00 0.33 0.03 97 1012.6
20260507121103 3 330 0.0 0.0 0.00 0.33 0.03 97 1012.6
20260507120604 3 330 0.0 0.0 0.00 0.36 0.03 97 1012.7
20260507120104 3 330 0.0 1.6 0.00 0.36 0.03 97 1012.7
20260507115604 3 353 0.0 3.2 0.00 0.36 0.03 97 1012.7
20260507115103 3 355 1.6 3.2 0.00 0.36 0.03 97 1012.7
20260507114604 3 355 0.0 4.8 0.00 0.36 0.03 97 1012.8
20260507114103 3 343 1.6 9.7 0.00 0.36 0.03 97 1012.9
20260507113603 3 5 1.6 9.7 0.00 0.36 0.03 97 1012.9
20260507112604 3 26 1.6 4.8 0.00 0.38 0.03 97 1012.7
20260507112104 3 358 3.2 8.0 0.00 0.38 0.03 97 1012.8
20260507111604 3 347 3.2 4.8 0.00 0.41 0.03 97 1012.6
20260507111105 3 23 1.6 4.8 0.00 0.41 0.03 98 1012.4
20260507110603 3 49 0.0 1.6 0.00 0.41 0.03 98 1012.4
20260507110104 3 75 0.0 3.2 0.00 0.41 0.03 98 1012.3
20260507105603 3 120 0.0 1.6 0.00 0.41 0.03 98 1012.2
20260507104604 3 120 0.0 1.6 0.00 0.43 0.03 98 1011.9
20260507104104 3 120 0.0 0.0 0.00 0.43 0.03 97 1012.0
20260507103603 3 120 0.0 0.0 0.00 0.43 0.03 97 1012.0
20260507103104 3 120 0.0 1.6 0.00 0.43 0.03 97 1011.9
20260507102604 3 121 0.0 1.6 0.00 0.43 0.03 97 1011.8
20260507102104 3 121 1.6 1.6 0.00 0.43 0.03 97 1011.6
20260507101603 3 121 0.0 1.6 0.00 0.46 0.03 97 1011.7
20260507101104 3 121 0.0 1.6 0.00 0.46 0.03 97 1011.8
20260507100604 3 121 1.6 3.2 0.00 0.46 0.03 97 1011.7
20260507094603 3 147 0.0 1.6 0.00 0.51 0.03 97 1012.0
20260507093604 3 147 0.0 0.0 0.00 0.51 0.03 97 1011.9
20260507093104 4 147 0.0 0.0 0.00 0.53 0.03 97 1011.9
20260507092604 4 147 0.0 0.0 0.00 0.53 0.03 97 1011.9
20260507092103 4 147 0.0 0.0 0.00 0.53 0.03 97 1012.0
20260507091603 4 147 0.0 0.0 0.00 0.56 0.03 97 1011.9
20260507090603 4 148 0.0 1.6 0.00 0.58 0.03 97 1011.8
20260507090105 4 148 1.6 4.8 0.00 0.58 0.03 97 1011.7
20260507085103 5 59 1.6 3.2 0.00 0.61 0.03 97 1011.8
20260507084103 5 27 0.0 3.2 0.00 0.61 0.03 98 1011.9
20260507083604 5 26 0.0 3.2 0.00 0.64 0.03 98 1011.9
20260507083104 4 307 0.0 1.6 0.00 0.64 0.03 98 1012.0
20260507082604 4 307 0.0 0.0 0.00 0.66 0.03 98 1012.0
20260507082104 4 307 0.0 0.0 0.00 0.66 0.03 98 1011.9
20260507081604 4 307 1.6 3.2 0.00 0.69 0.03 98 1012.0
20260507081104 4 287 0.0 1.6 0.00 0.69 0.03 97 1012.0
20260507080604 3 287 0.0 0.0 0.00 0.71 0.03 98 1012.0
20260507080103 3 287 0.0 0.0 0.00 0.74 0.03 97 1012.0
20260507075603 3 287 1.6 3.2 0.00 0.76 0.03 98 1011.9
20260507074604 3 274 0.0 1.6 0.00 0.79 0.03 98 1011.8
20260507074104 3 274 0.0 1.6 0.00 0.81 0.03 97 1011.8
20260507073603 3 274 0.0 0.0 0.00 0.81 0.03 97 1011.6
20260507072603 2 274 0.0 0.0 0.00 0.84 0.03 97 1011.7
20260507072104 2 274 0.0 1.6 0.00 0.86 0.03 97 1011.6
20260507071605 2 274 0.0 1.6 0.00 0.86 0.03 97 1011.7
20260507071103 2 274 0.0 1.6 0.00 0.89 0.03 96 1011.8
20260507070603 3 274 0.0 0.0 0.00 0.89 0.03 96 1011.8
20260507070104 3 274 0.0 0.0 0.00 0.91 0.03 96 1011.8
20260507065604 3 274 0.0 0.0 0.00 0.94 0.03 96 1011.7
20260507065103 3 274 0.0 0.0 0.00 0.94 0.03 96 1011.8
20260507064604 3 274 1.6 3.2 0.00 0.94 0.03 96 1011.7
20260507064104 3 274 0.0 0.0 0.00 0.97 0.03 96 1011.9
20260507063604 3 274 0.0 0.0 0.00 0.97 0.03 96 1012.0
20260507063104 4 274 0.0 0.0 0.00 0.99 0.03 96 1012.0
20260507062104 4 274 0.0 0.0 0.03 0.99 0.03 97 1012.0
20260507061604 4 274 0.0 0.0 0.03 1.02 0.03 97 1012.0
20260507061104 5 274 0.0 0.0 0.03 1.02 0.03 97 1012.0
20260507060104 5 274 0.0 1.6 0.03 1.04 0.03 97 1012.1
20260507055603 5 274 0.0 3.2 0.03 1.04 0.03 97 1012.1
20260507055104 5 274 1.6 3.2 0.03 1.04 0.03 97 1012.1
20260507054604 5 274 0.0 0.0 0.03 1.07 0.03 97 1012.2
20260507054105 5 274 0.0 0.0 0.03 1.07 0.03 97 1012.3
20260507053604 5 274 0.0 0.0 0.03 1.07 0.03 97 1012.3
20260507052604 5 274 0.0 1.6 0.00 1.07 0.00 97 1012.2
20260507052103 5 274 0.0 1.6 0.00 1.07 0.00 97 1012.2
20260507051603 5 274 0.0 1.6 0.00 1.09 0.00 97 1012.4
20260507051104 5 274 0.0 3.2 0.00 1.09 0.00 97 1012.5
20260507050104 5 39 0.0 0.0 0.00 1.12 0.00 96 1012.5
20260507045604 5 39 0.0 0.0 0.00 1.14 0.00 97 1012.4
20260507044604 5 39 0.0 1.6 0.00 1.17 0.00 97 1012.6
20260507044103 5 39 0.0 0.0 0.00 1.17 0.00 97 1012.5
20260507043603 5 39 0.0 0.0 0.00 1.17 0.00 96 1012.6
20260507043104 5 39 0.0 0.0 0.00 1.19 0.00 96 1012.6
20260507042604 5 39 0.0 1.6 0.00 1.19 0.00 97 1012.6
20260507042103 5 39 0.0 1.6 0.00 1.19 0.00 97 1012.6
20260507041604 5 39 0.0 1.6 0.00 1.19 0.00 97 1012.6
20260507041104 5 39 0.0 0.0 0.00 1.19 0.00 96 1012.4
20260507040604 5 39 0.0 0.0 0.00 1.19 0.00 96 1012.5
20260507040104 5 39 0.0 0.0 0.00 1.19 0.00 96 1012.5
20260507035603 5 39 0.0 3.2 0.00 1.19 1.19 96 1012.5
20260507035105 5 37 1.6 3.2 0.00 1.19 1.19 97 1012.4
20260507034604 5 288 0.0 0.0 0.00 1.19 1.19 96 1012.5
20260507034103 5 288 0.0 0.0 0.00 1.19 1.19 96 1012.4
20260507033604 5 288 0.0 0.0 0.00 1.19 1.19 96 1012.4
20260507033103 5 288 0.0 0.0 0.00 1.19 1.19 96 1012.4
20260507032604 5 288 0.0 0.0 0.00 1.19 1.19 96 1012.4
20260507032104 5 288 0.0 1.6 0.00 1.19 1.19 96 1012.4
20260507031604 5 288 1.6 3.2 0.00 1.22 1.19 96 1012.5
20260507031104 5 288 0.0 1.6 0.00 1.22 1.19 96 1012.5
20260507030605 5 288 1.6 3.2 0.00 1.22 1.19 96 1012.5
20260507030104 5 288 0.0 0.0 0.00 1.24 1.19 96 1012.5
20260507025603 5 288 0.0 1.6 0.00 1.24 1.19 96 1012.3
20260507025104 5 288 0.0 0.0 0.00 1.27 1.19 96 1012.2
20260507024603 5 288 0.0 3.2 0.00 1.27 1.19 96 1012.3
20260507024104 5 288 0.0 3.2 0.00 1.30 1.19 96 1012.3
20260507023604 5 288 1.6 3.2 0.00 1.30 1.19 96 1012.2
20260507022604 5 288 1.6 3.2 0.00 1.32 1.19 96 1012.3
20260507022104 5 288 0.0 3.2 0.00 1.35 1.19 96 1012.3
20260507021604 5 288 1.6 3.2 0.00 1.35 1.19 96 1012.3
20260507021103 5 293 0.0 3.2 0.00 1.35 1.19 96 1012.4
20260507020603 5 303 1.6 4.8 0.00 1.35 1.19 96 1012.6
20260507020104 5 293 1.6 3.2 0.00 1.35 1.19 96 1012.7
20260507015604 5 293 1.6 4.8 0.00 1.35 1.19 96 1012.8
20260507014604 5 282 0.0 3.2 0.00 1.37 1.19 96 1012.7
20260507014103 5 251 0.0 1.6 0.00 1.37 1.19 96 1012.7
20260507013604 5 251 1.6 3.2 0.00 1.40 1.19 96 1012.6
20260507013103 5 251 1.6 3.2 0.00 1.40 1.19 96 1012.5
20260507012604 5 251 0.0 1.6 0.00 1.40 1.19 96 1012.3
20260507012104 5 251 0.0 3.2 0.00 1.40 1.19 96 1012.3
20260507011604 5 262 1.6 3.2 0.00 1.42 1.19 96 1012.3
20260507010104 5 343 0.0 3.2 0.00 1.42 1.19 96 1012.1
20260507005604 5 343 1.6 3.2 0.00 1.42 1.19 96 1012.1
20260507005103 5 343 1.6 3.2 0.00 1.45 1.19 95 1012.0
20260507004604 5 343 0.0 0.0 0.00 1.45 1.19 96 1012.0
20260507004104 5 343 0.0 0.0 0.00 1.47 1.19 95 1011.9
20260507003604 5 343 0.0 0.0 0.00 1.50 1.19 95 1011.8
20260507003104 5 343 0.0 0.0 0.00 1.52 1.19 95 1011.8
20260507002104 5 343 0.0 3.2 0.00 1.57 1.19 95 1011.8
20260507000603 5 343 0.0 0.0 0.00 1.65 1.19 95 1011.7
20260507000104 5 343 0.0 0.0 0.00 1.70 1.19 95 1011.6
20260506235603 6 343 0.0 0.0 0.00 1.70 1.19 95 1011.6
20260506234604 6 326 3.2 4.8 0.00 1.75 1.19 96 1011.7
20260506234103 6 341 1.6 4.8 0.00 1.78 1.19 96 1011.7
20260506233603 6 347 1.6 4.8 0.00 1.80 1.19 95 1011.7
20260506233104 6 345 3.2 4.8 0.00 1.80 1.19 95 1011.6
20260506232603 6 348 3.2 11.3 0.00 1.83 1.19 96 1011.6
20260506231103 6 1 3.2 4.8 0.00 1.88 1.19 96 1011.4
20260506225603 6 2 3.2 9.7 0.03 1.93 1.19 96 1011.1
20260506225103 6 47 1.6 4.8 0.03 1.93 1.19 96 1011.0
20260506224603 6 3 3.2 9.7 0.03 1.96 1.19 96 1011.0
20260506224103 6 29 1.6 4.8 0.05 1.98 1.19 96 1010.9
20260506223603 6 25 3.2 4.8 0.05 1.98 1.19 96 1010.9
20260506223103 5 39 1.6 3.2 0.05 2.01 1.19 96 1010.9
20260506222603 5 32 3.2 4.8 0.08 2.03 1.19 95 1010.8
20260506222103 5 30 4.8 12.9 0.08 2.06 1.19 95 1010.7
20260506221603 5 38 3.2 12.9 0.10 2.11 1.19 96 1010.6
20260506221103 5 42 3.2 9.7 0.10 2.13 1.19 96 1010.5
20260506214603 5 338 6.4 12.9 0.15 2.26 1.17 95 1010.6
20260506214103 5 352 6.4 14.5 0.13 2.26 1.14 94 1010.5
20260506213103 5 351 6.4 12.9 0.15 2.34 1.14 94 1010.3
20260506212602 5 8 8.0 20.9 0.15 2.36 1.12 93 1010.2
20260506212103 6 11 9.7 25.7 0.15 2.39 1.12 93 1010.1
20260506211103 6 352 16.1 25.7 0.13 2.41 1.09 92 1009.7
20260506210603 7 343 12.9 22.5 0.10 2.41 1.07 92 1009.7
20260506205603 8 26 8.0 19.3 0.08 2.46 1.04 92 1009.4
20260506204603 8 354 4.8 24.1 0.05 2.49 1.02 91 1009.4
20260506203604 10 4 8.0 19.3 0.03 2.54 0.99 89 1009.2
20260506203103 10 342 9.7 14.5 0.03 2.57 0.99 89 1009.1
20260506202603 10 345 1.6 4.8 0.00 2.54 0.97 89 1008.9
20260506202103 10 325 3.2 8.0 0.00 2.54 0.97 88 1008.9
20260506201603 10 298 1.6 4.8 0.00 2.54 0.97 88 1008.9
20260506201103 10 264 1.6 4.8 0.00 2.54 0.97 87 1008.9
20260506200602 10 255 1.6 4.8 0.00 2.54 0.97 87 1008.9
20260506195103 10 237 3.2 4.8 0.00 2.54 0.97 87 1008.8
20260506194603 10 215 3.2 4.8 0.00 2.54 0.97 87 1008.9
20260506194102 10 193 1.6 4.8 0.00 2.54 0.97 87 1009.0
20260506193103 10 274 3.2 4.8 0.00 2.54 0.97 88 1009.0
20260506192603 10 252 1.6 4.8 0.00 2.54 0.97 88 1008.9
20260506192103 10 222 1.6 3.2 0.00 2.54 0.97 88 1008.9
20260506191603 10 205 1.6 4.8 0.00 2.54 0.97 88 1009.0
20260506191103 10 193 3.2 4.8 0.00 2.54 0.97 87 1008.9
20260506190603 10 141 3.2 4.8 0.00 2.54 0.97 88 1008.9
20260506185103 10 142 0.0 0.0 0.00 2.54 0.97 86 1009.0
20260506184603 10 142 0.0 4.8 0.00 2.54 0.97 85 1008.9
20260506184103 10 142 4.8 4.8 0.00 2.54 0.97 86 1008.9
20260506183603 10 179 1.6 4.8 0.00 2.54 0.97 86 1008.9
20260506183103 11 212 1.6 4.8 0.00 2.54 0.97 87 1008.9
20260506182603 10 197 4.8 11.3 0.00 2.54 0.97 88 1009.0
20260506182103 11 155 4.8 12.9 0.00 2.54 0.97 88 1009.1
20260506181103 10 194 3.2 4.8 0.00 2.54 0.97 91 1008.9
20260506180603 9 139 3.2 4.8 0.00 2.54 0.97 91 1008.9
20260506180103 9 175 3.2 4.8 0.00 2.54 0.97 91 1009.0
20260506174603 9 123 1.6 4.8 0.00 2.54 0.97 92 1009.0
20260506174103 9 175 0.0 1.6 0.00 2.54 0.97 92 1009.2
20260506173603 8 147 0.0 1.6 0.00 2.54 0.97 92 1009.2
20260506173104 8 148 1.6 3.2 0.00 2.54 0.97 92 1009.3
20260506172603 8 172 0.0 3.2 0.00 2.54 0.97 92 1009.3
20260506172103 8 172 0.0 1.6 0.00 2.54 0.97 93 1009.3
20260506171103 8 172 3.2 4.8 0.00 2.54 0.97 93 1009.2
20260506170603 8 163 3.2 4.8 0.00 2.54 0.97 94 1009.2
20260506165604 8 176 3.2 4.8 0.00 2.54 0.97 95 1008.9
20260506165103 8 169 3.2 4.8 0.00 2.54 0.97 95 1009.0
20260506164603 8 107 3.2 4.8 0.00 2.54 0.97 95 1008.8
20260506164102 8 175 1.6 4.8 0.00 2.54 0.97 95 1008.9
20260506163603 8 139 3.2 4.8 0.00 2.54 0.97 95 1008.8
20260506162602 8 117 0.0 4.8 0.00 2.54 0.97 95 1009.0
20260506162104 8 124 3.2 4.8 0.00 2.54 0.97 95 1009.0
20260506161603 8 120 3.2 4.8 0.00 2.54 0.97 95 1009.2
20260506161103 8 122 3.2 4.8 0.00 2.54 0.97 96 1009.1
20260506160602 8 99 1.6 4.8 0.00 2.54 0.97 95 1009.0
20260506160103 8 119 3.2 4.8 0.00 2.54 0.97 96 1009.0
20260506155603 8 160 3.2 8.0 0.00 2.54 0.97 96 1008.9
20260506155103 8 139 4.8 9.7 0.00 2.57 0.97 97 1008.8
20260506154603 8 124 3.2 4.8 0.00 2.57 0.97 96 1008.9
20260506154103 8 133 0.0 3.2 0.00 2.57 0.97 97 1008.9
20260506153603 8 136 3.2 4.8 0.00 2.57 0.97 97 1009.0
20260506153103 8 115 1.6 3.2 0.00 2.57 0.97 97 1009.0
20260506152603 8 131 3.2 4.8 0.00 2.57 0.97 97 1008.8
20260506152103 8 140 4.8 4.8 0.00 2.57 0.97 97 1008.6
20260506151603 8 137 4.8 11.3 0.03 2.57 0.97 97 1008.6
20260506151103 8 129 4.8 8.0 0.03 2.57 0.97 97 1008.5
20260506150604 7 110 3.2 4.8 0.03 2.57 0.97 97 1008.6
20260506145603 7 131 3.2 4.8 0.05 2.57 0.97 97 1008.6
20260506145103 7 148 3.2 4.8 0.05 2.57 0.97 97 1008.6
20260506144603 7 127 1.6 8.0 0.05 2.57 0.97 97 1008.5
20260506144103 7 127 4.8 9.7 0.05 2.57 0.97 98 1008.5
20260506143103 7 120 4.8 9.7 0.05 2.57 0.97 98 1008.5
20260506142603 7 123 1.6 4.8 0.05 2.57 0.97 98 1008.5
20260506142104 7 143 1.6 3.2 0.05 2.57 0.97 98 1008.6
20260506141603 7 149 1.6 4.8 0.03 2.54 0.94 97 1008.6
20260506141103 7 120 1.6 4.8 0.03 2.54 0.94 97 1008.5